Time,TemperatureF,DewpointF,PressureIn,WindDirection,WindDirectionDegrees,WindSpeedMPH,WindSpeedGustMPH,Humidity,HourlyPrecipIn,Conditions,Clouds,dailyrainin,SoftwareType,DateUTC
2013-10-13 00:01:00,51.8,50.9,30.40,East,90,0.0,0.0,97,0.00,,,0.00,meteohub,2013-10-13 04:01:00,
2013-10-13 00:02:00,51.8,50.9,30.40,East,90,0.0,0.0,97,0.00,,,0.00,meteohub,2013-10-13 04:02:00,
2013-10-13 00:03:00,51.8,50.9,30.40,East,90,0.0,0.0,97,0.00,,,0.00,meteohub,2013-10-13 04:03:00,
2013-10-13 00:08:00,51.6,51.1,30.40,South,180,0.0,0.0,98,0.00,,,0.00,meteohub,2013-10-13 04:08:00,
2013-10-13 00:13:00,51.4,50.9,30.40,South,180,0.0,0.0,98,0.00,,,0.00,meteohub,2013-10-13 04:13:00,
2013-10-13 00:18:00,51.6,51.1,30.40,South,180,0.0,0.0,98,0.00,,,0.00,meteohub,2013-10-13 04:18:00,
2013-10-13 00:23:00,51.6,51.1,30.40,South,180,0.0,0.0,98,0.00,,,0.00,meteohub,2013-10-13 04:23:00,
2013-10-13 00:28:00,51.6,51.1,30.40,South,180,0.0,0.0,98,0.00,,,0.00,meteohub,2013-10-13 04:28:00,
2013-10-13 00:33:00,51.6,51.1,30.39,South,180,0.0,0.0,98,0.00,,,0.00,meteohub,2013-10-13 04:33:00,
2013-10-13 00:39:00,51.6,51.1,30.40,South,180,0.0,0.0,98,0.00,,,0.00,meteohub,2013-10-13 04:39:00,
2013-10-13 00:44:00,51.6,51.1,30.39,South,180,0.0,0.0,98,0.00,,,0.00,meteohub,2013-10-13 04:44:00,
2013-10-13 00:49:00,51.4,50.9,30.40,South,180,0.0,0.0,98,0.00,,,0.00,meteohub,2013-10-13 04:49:00,
2013-10-13 00:54:00,51.4,50.9,30.40,South,180,0.0,0.0,98,0.00,,,0.00,meteohub,2013-10-13 04:54:00,
2013-10-13 00:59:00,51.4,50.9,30.40,South,180,0.0,0.0,98,0.00,,,0.00,meteohub,2013-10-13 04:59:00,
2013-10-13 01:04:00,51.4,50.9,30.40,South,180,0.0,0.0,98,0.00,,,0.00,meteohub,2013-10-13 05:04:00,
2013-10-13 01:09:00,51.4,50.9,30.40,South,180,0.0,0.0,98,0.00,,,0.00,meteohub,2013-10-13 05:09:00,
2013-10-13 01:14:00,51.3,50.7,30.40,South,180,0.0,0.0,98,0.00,,,0.00,meteohub,2013-10-13 05:14:00,
2013-10-13 01:19:00,51.3,50.7,30.40,South,180,0.0,0.0,98,0.00,,,0.00,meteohub,2013-10-13 05:19:00,
2013-10-13 01:24:00,51.3,50.9,30.40,South,180,0.0,0.0,99,0.00,,,0.00,meteohub,2013-10-13 05:24:00,
2013-10-13 01:29:00,51.3,50.9,30.40,South,180,0.0,0.0,99,0.00,,,0.00,meteohub,2013-10-13 05:29:00,
2013-10-13 01:34:00,51.3,50.9,30.40,South,180,0.0,0.0,99,0.00,,,0.00,meteohub,2013-10-13 05:34:00,
2013-10-13 01:39:00,51.3,50.9,30.40,North,0,0.0,0.0,99,0.00,,,0.00,meteohub,2013-10-13 05:39:00,
2013-10-13 01:44:00,51.3,50.9,30.40,North,0,0.0,0.0,99,0.00,,,0.00,meteohub,2013-10-13 05:44:00,
2013-10-13 01:49:00,51.3,50.9,30.41,North,0,0.0,0.0,99,0.00,,,0.00,meteohub,2013-10-13 05:49:00,
2013-10-13 01:54:00,51.3,50.9,30.40,North,0,0.0,0.0,99,0.00,,,0.00,meteohub,2013-10-13 05:54:00,
2013-10-13 01:59:00,51.3,50.9,30.40,North,0,0.0,0.0,99,0.00,,,0.00,meteohub,2013-10-13 05:59:00,
2013-10-13 02:04:00,51.3,50.9,30.40,North,0,0.0,0.0,99,0.00,,,0.00,meteohub,2013-10-13 06:04:00,
2013-10-13 02:10:00,51.3,50.9,30.40,North,0,0.0,0.0,99,0.00,,,0.00,meteohub,2013-10-13 06:10:00,
2013-10-13 02:15:00,51.3,50.9,30.40,North,0,0.0,0.0,99,0.00,,,0.00,meteohub,2013-10-13 06:15:00,
2013-10-13 02:20:00,51.3,50.9,30.40,North,0,0.0,0.0,99,0.00,,,0.00,meteohub,2013-10-13 06:20:00,
2013-10-13 02:25:00,51.3,50.9,30.40,North,0,0.0,0.0,99,0.00,,,0.00,meteohub,2013-10-13 06:25:00,
2013-10-13 02:30:00,51.1,50.7,30.40,North,0,0.0,0.0,99,0.00,,,0.00,meteohub,2013-10-13 06:30:00,
2013-10-13 02:35:00,51.3,50.9,30.40,North,0,0.0,0.0,99,0.00,,,0.00,meteohub,2013-10-13 06:35:00,
2013-10-13 02:40:00,51.1,50.7,30.40,North,0,0.0,0.0,99,0.00,,,0.00,meteohub,2013-10-13 06:40:00,
2013-10-13 02:45:00,51.1,50.7,30.40,North,0,0.0,0.0,99,0.00,,,0.00,meteohub,2013-10-13 06:45:00,
2013-10-13 02:50:00,51.1,50.7,30.40,North,0,0.0,0.0,99,0.00,,,0.00,meteohub,2013-10-13 06:50:00,
2013-10-13 02:55:00,51.1,50.7,30.40,North,0,0.0,0.0,99,0.00,,,0.00,meteohub,2013-10-13 06:55:00,
2013-10-13 03:00:00,51.1,50.7,30.39,North,0,0.0,0.0,99,0.00,,,0.00,meteohub,2013-10-13 07:00:00,
2013-10-13 03:05:00,51.1,50.7,30.39,North,0,0.0,0.0,99,0.00,,,0.00,meteohub,2013-10-13 07:05:00,
2013-10-13 03:10:00,51.1,50.7,30.39,North,0,0.0,0.0,99,0.00,,,0.00,meteohub,2013-10-13 07:10:00,
2013-10-13 03:15:00,50.9,50.5,30.39,North,0,0.0,0.0,99,0.00,,,0.00,meteohub,2013-10-13 07:15:00,
2013-10-13 03:20:00,50.9,50.5,30.39,North,0,0.0,0.0,99,0.00,,,0.00,meteohub,2013-10-13 07:20:00,
2013-10-13 03:25:00,50.9,50.5,30.40,North,0,0.0,0.0,99,0.00,,,0.00,meteohub,2013-10-13 07:25:00,
2013-10-13 03:30:00,51.1,50.7,30.39,North,0,0.0,0.0,99,0.00,,,0.00,meteohub,2013-10-13 07:30:00,
2013-10-13 03:35:00,51.1,50.7,30.39,North,0,0.0,0.0,99,0.00,,,0.00,meteohub,2013-10-13 07:35:00,
2013-10-13 03:40:00,51.1,50.7,30.39,North,0,0.0,0.0,99,0.00,,,0.00,meteohub,2013-10-13 07:40:00,
2013-10-13 03:45:00,51.1,50.7,30.40,North,0,0.0,0.0,99,0.00,,,0.00,meteohub,2013-10-13 07:45:00,
2013-10-13 03:50:00,51.1,50.7,30.40,North,0,0.0,0.0,99,0.00,,,0.00,meteohub,2013-10-13 07:50:00,
2013-10-13 03:55:00,51.1,50.7,30.40,NE,45,0.0,0.0,99,0.00,,,0.00,meteohub,2013-10-13 07:55:00,
2013-10-13 04:00:00,51.1,50.7,30.40,NE,45,0.0,0.0,99,0.00,,,0.00,meteohub,2013-10-13 08:00:00,
2013-10-13 04:05:00,51.3,50.9,30.39,NE,45,0.0,0.0,99,0.00,,,0.00,meteohub,2013-10-13 08:05:00,
2013-10-13 04:10:00,51.1,50.7,30.39,NE,45,1.0,0.0,99,0.00,,,0.00,meteohub,2013-10-13 08:10:00,
2013-10-13 04:15:00,51.3,50.9,30.39,NE,45,0.0,0.0,99,0.00,,,0.00,meteohub,2013-10-13 08:15:00,
2013-10-13 04:20:00,51.3,50.9,30.40,East,90,0.0,0.0,99,0.00,,,0.00,meteohub,2013-10-13 08:20:00,
2013-10-13 04:25:00,51.3,50.9,30.40,East,90,0.0,0.0,99,0.00,,,0.00,meteohub,2013-10-13 08:25:00,
2013-10-13 04:30:00,51.4,51.1,30.39,East,90,0.0,0.0,99,0.00,,,0.00,meteohub,2013-10-13 08:30:00,
2013-10-13 04:35:00,51.4,51.1,30.39,East,90,0.0,0.0,99,0.00,,,0.00,meteohub,2013-10-13 08:35:00,
2013-10-13 04:40:00,51.4,51.1,30.39,East,90,0.0,0.0,99,0.00,,,0.00,meteohub,2013-10-13 08:40:00,
2013-10-13 04:45:00,51.4,51.1,30.39,East,90,0.0,0.0,99,0.00,,,0.00,meteohub,2013-10-13 08:45:00,
2013-10-13 04:50:00,51.3,50.9,30.40,East,90,0.0,0.0,99,0.00,,,0.00,meteohub,2013-10-13 08:50:00,
2013-10-13 04:56:00,51.3,50.9,30.40,East,90,0.0,0.0,99,0.00,,,0.00,meteohub,2013-10-13 08:56:00,
2013-10-13 05:01:00,51.3,50.9,30.39,East,90,0.0,0.0,99,0.00,,,0.00,meteohub,2013-10-13 09:01:00,
2013-10-13 05:06:00,51.3,50.9,30.40,East,90,0.0,0.0,99,0.00,,,0.00,meteohub,2013-10-13 09:06:00,
2013-10-13 05:11:00,51.1,50.7,30.40,East,90,0.0,0.0,99,0.00,,,0.00,meteohub,2013-10-13 09:11:00,
2013-10-13 05:16:00,51.1,50.7,30.40,East,90,0.0,0.0,99,0.00,,,0.00,meteohub,2013-10-13 09:16:00,
2013-10-13 05:21:00,51.1,50.7,30.40,East,90,0.0,0.0,99,0.00,,,0.00,meteohub,2013-10-13 09:21:00,
2013-10-13 05:26:00,51.1,50.7,30.40,East,90,0.0,0.0,99,0.00,,,0.00,meteohub,2013-10-13 09:26:00,
2013-10-13 05:31:00,51.1,50.7,30.40,NW,315,0.0,0.0,99,0.00,,,0.00,meteohub,2013-10-13 09:31:00,
2013-10-13 05:36:00,51.1,50.7,30.40,NE,45,0.0,0.0,99,0.00,,,0.00,meteohub,2013-10-13 09:36:00,
2013-10-13 05:41:00,50.9,50.5,30.40,NE,45,0.0,0.0,99,0.00,,,0.00,meteohub,2013-10-13 09:41:00,
2013-10-13 05:46:00,50.9,50.5,30.40,NE,45,0.0,0.0,99,0.00,,,0.00,meteohub,2013-10-13 09:46:00,
2013-10-13 05:52:00,50.9,50.5,30.40,NE,45,0.0,0.0,99,0.00,,,0.00,meteohub,2013-10-13 09:52:00,
2013-10-13 05:57:00,50.9,50.5,30.40,NE,45,0.0,0.0,99,0.00,,,0.00,meteohub,2013-10-13 09:57:00,
2013-10-13 06:02:00,50.9,50.5,30.40,NE,45,0.0,0.0,99,0.00,,,0.00,meteohub,2013-10-13 10:02:00,
2013-10-13 06:07:00,50.9,50.5,30.41,NE,45,0.0,0.0,99,0.00,,,0.00,meteohub,2013-10-13 10:07:00,
2013-10-13 06:12:00,50.9,50.5,30.40,NW,315,0.0,0.0,99,0.00,,,0.00,meteohub,2013-10-13 10:12:00,
2013-10-13 06:17:00,50.9,50.5,30.40,NW,315,0.0,0.0,99,0.00,,,0.00,meteohub,2013-10-13 10:17:00,
2013-10-13 06:22:00,50.9,50.5,30.41,NW,315,0.0,0.0,99,0.00,,,0.00,meteohub,2013-10-13 10:22:00,
2013-10-13 06:27:00,50.9,50.5,30.40,NW,315,0.0,0.0,99,0.00,,,0.00,meteohub,2013-10-13 10:27:00,
2013-10-13 06:32:00,50.9,50.5,30.41,NW,315,0.0,0.0,99,0.00,,,0.00,meteohub,2013-10-13 10:32:00,
2013-10-13 06:37:00,50.9,50.5,30.41,North,0,0.0,0.0,99,0.00,,,0.00,meteohub,2013-10-13 10:37:00,
2013-10-13 06:42:00,50.7,50.4,30.41,NW,315,0.0,0.0,99,0.00,,,0.00,meteohub,2013-10-13 10:42:00,
2013-10-13 06:47:00,50.9,50.5,30.41,NW,315,0.0,0.0,99,0.00,,,0.00,meteohub,2013-10-13 10:47:00,
2013-10-13 06:52:00,50.9,50.5,30.41,NW,315,0.0,0.0,99,0.00,,,0.00,meteohub,2013-10-13 10:52:00,
2013-10-13 06:57:00,50.9,50.5,30.41,NW,315,0.0,0.0,99,0.00,,,0.00,meteohub,2013-10-13 10:57:00,
2013-10-13 07:02:00,50.9,50.5,30.41,NW,315,0.0,0.0,99,0.00,,,0.00,meteohub,2013-10-13 11:02:00,
2013-10-13 07:07:00,50.9,50.5,30.42,NW,315,0.0,0.0,99,0.00,,,0.00,meteohub,2013-10-13 11:07:00,
2013-10-13 07:12:00,50.9,50.5,30.42,West,270,0.0,0.0,99,0.00,,,0.00,meteohub,2013-10-13 11:12:00,
2013-10-13 07:17:00,50.9,50.5,30.42,North,0,1.0,0.0,99,0.00,,,0.00,meteohub,2013-10-13 11:17:00,
2013-10-13 07:22:00,50.9,50.5,30.43,NW,315,0.0,0.0,99,0.00,,,0.00,meteohub,2013-10-13 11:22:00,
2013-10-13 07:27:00,51.1,50.7,30.42,NW,315,2.0,0.0,99,0.00,,,0.00,meteohub,2013-10-13 11:27:00,
2013-10-13 07:32:00,51.1,50.7,30.42,NW,315,2.0,0.0,99,0.00,,,0.00,meteohub,2013-10-13 11:32:00,
2013-10-13 07:37:00,51.1,50.7,30.42,NW,315,0.0,0.0,99,0.00,,,0.00,meteohub,2013-10-13 11:37:00,
2013-10-13 07:42:00,51.3,50.9,30.43,North,0,0.0,0.0,99,0.00,,,0.00,meteohub,2013-10-13 11:42:00,
2013-10-13 07:47:00,51.3,50.9,30.42,North,0,0.0,0.0,99,0.00,,,0.00,meteohub,2013-10-13 11:47:00,
2013-10-13 07:52:00,51.4,51.1,30.43,North,0,0.0,0.0,99,0.00,,,0.00,meteohub,2013-10-13 11:52:00,
2013-10-13 07:57:00,51.4,51.1,30.43,East,90,0.0,0.0,99,0.00,,,0.00,meteohub,2013-10-13 11:57:00,
2013-10-13 08:02:00,51.6,51.3,30.43,NE,45,0.0,0.0,99,0.00,,,0.00,meteohub,2013-10-13 12:02:00,
2013-10-13 08:07:00,51.6,51.3,30.43,North,0,0.0,0.0,99,0.00,,,0.00,meteohub,2013-10-13 12:07:00,
2013-10-13 08:12:00,51.8,51.4,30.43,NE,45,0.0,0.0,99,0.00,,,0.00,meteohub,2013-10-13 12:12:00,
2013-10-13 08:17:00,52.0,51.6,30.43,NE,45,0.0,0.0,99,0.00,,,0.00,meteohub,2013-10-13 12:17:00,
2013-10-13 08:22:00,52.2,51.8,30.43,NE,45,0.0,0.0,99,0.00,,,0.00,meteohub,2013-10-13 12:22:00,
2013-10-13 08:27:00,52.3,51.8,30.43,NE,45,0.0,0.0,98,0.00,,,0.00,meteohub,2013-10-13 12:27:00,
2013-10-13 08:32:00,52.5,51.6,30.42,NE,45,0.0,0.0,97,0.00,,,0.00,meteohub,2013-10-13 12:32:00,
2013-10-13 08:37:00,52.9,51.8,30.43,NE,45,0.0,0.0,96,0.00,,,0.00,meteohub,2013-10-13 12:37:00,
2013-10-13 08:42:00,53.2,51.8,30.43,NE,45,0.0,0.0,95,0.00,,,0.00,meteohub,2013-10-13 12:42:00,
2013-10-13 08:47:00,53.4,51.4,30.43,NE,45,0.0,0.0,93,0.00,,,0.00,meteohub,2013-10-13 12:47:00,
2013-10-13 08:52:00,54.0,52.0,30.43,NE,45,0.0,0.0,93,0.00,,,0.00,meteohub,2013-10-13 12:52:00,
2013-10-13 08:57:00,54.1,51.6,30.43,East,90,0.0,0.0,91,0.00,,,0.00,meteohub,2013-10-13 12:57:00,
2013-10-13 09:02:00,54.3,50.9,30.43,NE,45,0.0,0.0,88,0.00,,,0.00,meteohub,2013-10-13 13:02:00,
2013-10-13 09:07:00,54.7,51.3,30.43,SE,135,1.0,0.0,88,0.00,,,0.00,meteohub,2013-10-13 13:07:00,
2013-10-13 09:12:00,55.0,50.9,30.43,East,90,2.0,0.0,86,0.00,,,0.00,meteohub,2013-10-13 13:12:00,
2013-10-13 09:17:00,55.2,50.2,30.43,SSE,158,0.0,0.0,83,0.00,,,0.00,meteohub,2013-10-13 13:17:00,
2013-10-13 09:22:00,55.6,50.5,30.43,SE,135,1.0,0.0,83,0.00,,,0.00,meteohub,2013-10-13 13:22:00,
2013-10-13 09:27:00,55.9,50.2,30.43,South,180,2.0,0.0,81,0.00,,,0.00,meteohub,2013-10-13 13:27:00,
2013-10-13 09:32:00,56.5,50.7,30.43,SE,135,0.0,0.0,81,0.00,,,0.00,meteohub,2013-10-13 13:32:00,
2013-10-13 09:37:00,56.7,49.8,30.44,SE,135,4.0,0.0,78,0.00,,,0.00,meteohub,2013-10-13 13:37:00,
2013-10-13 09:42:00,57.0,50.5,30.43,SE,135,2.0,0.0,79,0.00,,,0.00,meteohub,2013-10-13 13:42:00,
2013-10-13 09:47:00,57.7,50.2,30.43,SE,135,4.0,0.0,76,0.00,,,0.00,meteohub,2013-10-13 13:47:00,
2013-10-13 09:52:00,58.1,49.5,30.43,South,180,3.0,0.0,73,0.00,,,0.00,meteohub,2013-10-13 13:52:00,
2013-10-13 09:57:00,58.6,50.0,30.44,East,90,2.0,0.0,73,0.00,,,0.00,meteohub,2013-10-13 13:57:00,
2013-10-13 10:02:00,59.0,50.0,30.44,South,180,2.0,0.0,72,0.00,,,0.00,meteohub,2013-10-13 14:02:00,
2013-10-13 10:07:00,59.5,50.5,30.44,South,180,1.0,0.0,72,0.00,,,0.00,meteohub,2013-10-13 14:07:00,
2013-10-13 10:12:00,60.1,49.5,30.44,South,180,4.0,0.0,68,0.00,,,0.00,meteohub,2013-10-13 14:12:00,
2013-10-13 10:17:00,59.5,49.8,30.44,SW,225,2.0,0.0,70,0.00,,,0.00,meteohub,2013-10-13 14:17:00,
2013-10-13 10:22:00,59.7,50.4,30.44,SW,225,2.0,0.0,71,0.00,,,0.00,meteohub,2013-10-13 14:22:00,
2013-10-13 10:27:00,60.1,49.5,30.44,West,270,1.0,0.0,68,0.00,,,0.00,meteohub,2013-10-13 14:27:00,
2013-10-13 10:32:00,61.0,50.0,30.43,East,90,0.0,0.0,67,0.00,,,0.00,meteohub,2013-10-13 14:32:00,
2013-10-13 10:37:00,60.3,48.9,30.44,South,180,4.0,0.0,66,0.00,,,0.00,meteohub,2013-10-13 14:37:00,
2013-10-13 10:42:00,59.5,48.9,30.44,South,180,8.0,0.0,68,0.00,,,0.00,meteohub,2013-10-13 14:42:00,
2013-10-13 10:47:00,59.7,49.5,30.44,East,90,5.0,0.0,69,0.00,,,0.00,meteohub,2013-10-13 14:47:00,
2013-10-13 10:52:00,60.3,49.3,30.43,SE,135,4.0,0.0,67,0.00,,,0.00,meteohub,2013-10-13 14:52:00,
2013-10-13 10:57:00,59.9,48.9,30.44,SE,135,4.0,0.0,67,0.00,,,0.00,meteohub,2013-10-13 14:57:00,
2013-10-13 11:02:00,60.3,50.0,30.45,NE,45,4.0,0.0,69,0.00,,,0.00,meteohub,2013-10-13 15:02:00,
2013-10-13 11:07:00,60.3,49.6,30.44,SSW,203,4.0,0.0,68,0.00,,,0.00,meteohub,2013-10-13 15:07:00,
2013-10-13 11:12:00,60.1,49.5,30.44,SW,225,4.0,0.0,68,0.00,,,0.00,meteohub,2013-10-13 15:12:00,
2013-10-13 11:17:00,60.3,50.0,30.44,SE,135,1.0,0.0,69,0.00,,,0.00,meteohub,2013-10-13 15:17:00,
2013-10-13 11:22:00,59.9,50.2,30.44,SW,225,5.0,0.0,70,0.00,,,0.00,meteohub,2013-10-13 15:22:00,
2013-10-13 11:27:00,59.7,50.4,30.44,NW,315,2.0,0.0,71,0.00,,,0.00,meteohub,2013-10-13 15:27:00,
2013-10-13 11:32:00,59.4,50.0,30.45,West,270,2.0,0.0,71,0.00,,,0.00,meteohub,2013-10-13 15:32:00,
2013-10-13 11:37:00,59.0,50.4,30.45,NW,315,2.0,0.0,73,0.00,,,0.00,meteohub,2013-10-13 15:37:00,
2013-10-13 11:42:00,58.8,49.5,30.44,South,180,3.0,0.0,71,0.00,,,0.00,meteohub,2013-10-13 15:42:00,
2013-10-13 11:47:00,59.0,49.6,30.44,South,180,0.0,0.0,71,0.00,,,0.00,meteohub,2013-10-13 15:47:00,
2013-10-13 11:52:00,58.8,49.1,30.44,South,180,7.0,0.0,70,0.00,,,0.00,meteohub,2013-10-13 15:52:00,
2013-10-13 11:57:00,58.3,48.6,30.44,SE,135,5.0,0.0,70,0.00,,,0.00,meteohub,2013-10-13 15:57:00,
2013-10-13 12:02:00,57.7,47.7,30.44,South,180,4.0,0.0,69,0.00,,,0.00,meteohub,2013-10-13 16:02:00,
2013-10-13 12:07:00,57.9,47.8,30.44,South,180,3.0,0.0,69,0.00,,,0.00,meteohub,2013-10-13 16:07:00,
2013-10-13 12:12:00,58.5,47.5,30.43,South,180,7.0,0.0,67,0.00,,,0.00,meteohub,2013-10-13 16:12:00,
2013-10-13 12:17:00,58.1,45.5,30.43,South,180,5.0,0.0,63,0.00,,,0.00,meteohub,2013-10-13 16:17:00,
2013-10-13 12:22:00,58.1,46.0,30.43,SSW,203,4.0,0.0,64,0.00,,,0.00,meteohub,2013-10-13 16:22:00,
2013-10-13 12:27:00,58.3,45.7,30.43,South,180,4.0,0.0,63,0.00,,,0.00,meteohub,2013-10-13 16:27:00,
2013-10-13 12:32:00,58.5,45.9,30.43,SW,225,2.0,0.0,63,0.00,,,0.00,meteohub,2013-10-13 16:32:00,
2013-10-13 12:37:00,58.3,45.0,30.43,South,180,5.0,0.0,61,0.00,,,0.00,meteohub,2013-10-13 16:37:00,
2013-10-13 12:42:00,58.5,45.9,30.43,SW,225,6.0,0.0,63,0.00,,,0.00,meteohub,2013-10-13 16:42:00,
2013-10-13 12:47:00,58.5,45.1,30.43,SW,225,5.0,0.0,61,0.00,,,0.00,meteohub,2013-10-13 16:47:00,
2013-10-13 12:52:00,58.6,44.8,30.43,SE,135,2.0,0.0,60,0.00,,,0.00,meteohub,2013-10-13 16:52:00,
2013-10-13 12:57:00,58.6,44.4,30.43,South,180,3.0,0.0,59,0.00,,,0.00,meteohub,2013-10-13 16:57:00,
2013-10-13 13:02:00,58.6,43.9,30.43,South,180,7.0,0.0,58,0.00,,,0.00,meteohub,2013-10-13 17:02:00,
2013-10-13 13:07:00,59.0,44.8,30.43,South,180,4.0,0.0,59,0.00,,,0.00,meteohub,2013-10-13 17:07:00,
2013-10-13 13:12:00,59.2,43.9,30.42,South,180,6.0,0.0,57,0.00,,,0.00,meteohub,2013-10-13 17:12:00,
2013-10-13 13:17:00,59.0,44.2,30.43,SW,225,6.0,0.0,58,0.00,,,0.00,meteohub,2013-10-13 17:17:00,
2013-10-13 13:22:00,59.0,44.8,30.42,South,180,5.0,0.0,59,0.00,,,0.00,meteohub,2013-10-13 17:22:00,
2013-10-13 13:27:00,59.5,45.1,30.42,SSE,158,4.0,0.0,59,0.00,,,0.00,meteohub,2013-10-13 17:27:00,
2013-10-13 13:32:00,59.9,44.2,30.42,South,180,9.0,0.0,56,0.00,,,0.00,meteohub,2013-10-13 17:32:00,
2013-10-13 13:37:00,59.2,44.4,30.42,SW,225,3.0,0.0,58,0.00,,,0.00,meteohub,2013-10-13 17:37:00,
2013-10-13 13:42:00,59.5,44.8,30.42,South,180,4.0,0.0,58,0.00,,,0.00,meteohub,2013-10-13 17:42:00,
2013-10-13 13:47:00,59.4,44.6,30.42,SW,225,5.0,0.0,58,0.00,,,0.00,meteohub,2013-10-13 17:47:00,
2013-10-13 13:52:00,59.2,44.8,30.42,North,0,2.0,0.0,59,0.00,,,0.00,meteohub,2013-10-13 17:52:00,
2013-10-13 13:57:00,59.5,44.8,30.41,SW,225,4.0,0.0,58,0.00,,,0.00,meteohub,2013-10-13 17:57:00,
2013-10-13 14:02:00,59.4,44.1,30.42,SE,135,6.0,0.0,57,0.00,,,0.00,meteohub,2013-10-13 18:02:00,
2013-10-13 14:07:00,59.4,44.1,30.42,NE,45,2.0,0.0,57,0.00,,,0.00,meteohub,2013-10-13 18:07:00,
2013-10-13 14:12:00,59.5,43.9,30.41,South,180,4.0,0.0,56,0.00,,,0.00,meteohub,2013-10-13 18:12:00,
2013-10-13 14:17:00,59.7,45.0,30.41,SE,135,2.0,0.0,58,0.00,,,0.00,meteohub,2013-10-13 18:17:00,
2013-10-13 14:22:00,59.7,44.1,30.40,South,180,2.0,0.0,56,0.00,,,0.00,meteohub,2013-10-13 18:22:00,
2013-10-13 14:27:00,59.9,44.6,30.40,SE,135,5.0,0.0,57,0.00,,,0.00,meteohub,2013-10-13 18:27:00,
2013-10-13 14:32:00,59.9,46.0,30.40,SE,135,2.0,0.0,60,0.00,,,0.00,meteohub,2013-10-13 18:32:00,
2013-10-13 14:37:00,59.7,45.3,30.40,SE,135,3.0,0.0,59,0.00,,,0.00,meteohub,2013-10-13 18:37:00,
2013-10-13 14:42:00,59.7,44.4,30.40,South,180,6.0,0.0,57,0.00,,,0.00,meteohub,2013-10-13 18:42:00,
2013-10-13 14:47:00,59.4,45.0,30.40,South,180,2.0,0.0,59,0.00,,,0.00,meteohub,2013-10-13 18:47:00,
2013-10-13 14:52:00,59.4,44.6,30.40,South,180,6.0,0.0,58,0.00,,,0.00,meteohub,2013-10-13 18:52:00,
2013-10-13 14:57:00,59.0,45.1,30.40,West,270,8.0,0.0,60,0.00,,,0.00,meteohub,2013-10-13 18:57:00,
2013-10-13 15:02:00,59.2,46.2,30.40,SE,135,2.0,0.0,62,0.00,,,0.00,meteohub,2013-10-13 19:02:00,
2013-10-13 15:07:00,59.4,45.0,30.40,SE,135,4.0,0.0,59,0.00,,,0.00,meteohub,2013-10-13 19:07:00,
2013-10-13 15:12:00,59.2,45.7,30.40,South,180,7.0,0.0,61,0.00,,,0.00,meteohub,2013-10-13 19:12:00,
2013-10-13 15:17:00,58.5,46.4,30.40,South,180,4.0,0.0,64,0.00,,,0.00,meteohub,2013-10-13 19:17:00,
2013-10-13 15:22:00,58.6,46.9,30.40,South,180,3.0,0.0,65,0.00,,,0.00,meteohub,2013-10-13 19:22:00,
2013-10-13 15:27:00,58.6,47.3,30.40,SE,135,2.0,0.0,66,0.00,,,0.00,meteohub,2013-10-13 19:27:00,
2013-10-13 15:32:00,58.5,47.1,30.39,SW,225,6.0,0.0,66,0.00,,,0.00,meteohub,2013-10-13 19:32:00,
2013-10-13 15:37:00,57.9,46.2,30.39,SSE,158,5.0,0.0,65,0.00,,,0.00,meteohub,2013-10-13 19:37:00,
2013-10-13 15:42:00,57.6,46.2,30.39,South,180,6.0,0.0,66,0.00,,,0.00,meteohub,2013-10-13 19:42:00,
2013-10-13 15:47:00,57.4,46.9,30.39,SE,135,4.0,0.0,68,0.00,,,0.00,meteohub,2013-10-13 19:47:00,
2013-10-13 15:52:00,57.2,46.4,30.39,SW,225,7.0,0.0,67,0.00,,,0.00,meteohub,2013-10-13 19:52:00,
2013-10-13 15:57:00,57.0,46.9,30.39,SE,135,7.0,0.0,69,0.00,,,0.00,meteohub,2013-10-13 19:57:00,
2013-10-13 16:02:00,57.0,47.7,30.39,South,180,3.0,0.0,71,0.00,,,0.00,meteohub,2013-10-13 20:02:00,
2013-10-13 16:07:00,56.8,47.5,30.40,South,180,7.0,0.0,71,0.00,,,0.00,meteohub,2013-10-13 20:07:00,
2013-10-13 16:12:00,56.5,47.1,30.39,South,180,6.0,0.0,71,0.00,,,0.00,meteohub,2013-10-13 20:12:00,
2013-10-13 16:17:00,56.3,46.6,30.39,South,180,6.0,0.0,70,0.00,,,0.00,meteohub,2013-10-13 20:17:00,
2013-10-13 16:22:00,56.3,46.6,30.39,South,180,4.0,0.0,70,0.00,,,0.00,meteohub,2013-10-13 20:22:00,
2013-10-13 16:27:00,56.5,46.4,30.39,SSW,203,5.0,0.0,69,0.00,,,0.00,meteohub,2013-10-13 20:27:00,
2013-10-13 16:32:00,56.3,44.2,30.39,SE,135,4.0,0.0,64,0.00,,,0.00,meteohub,2013-10-13 20:32:00,
2013-10-13 16:37:00,56.3,44.6,30.39,South,180,5.0,0.0,65,0.00,,,0.00,meteohub,2013-10-13 20:37:00,
2013-10-13 16:42:00,55.9,44.8,30.38,South,180,6.0,0.0,66,0.00,,,0.00,meteohub,2013-10-13 20:42:00,
2013-10-13 16:47:00,55.8,44.6,30.39,South,180,4.0,0.0,66,0.00,,,0.00,meteohub,2013-10-13 20:47:00,
2013-10-13 16:52:00,55.8,45.0,30.38,East,90,5.0,0.0,67,0.00,,,0.00,meteohub,2013-10-13 20:52:00,
2013-10-13 16:57:00,55.6,44.8,30.39,SE,135,4.0,0.0,67,0.00,,,0.00,meteohub,2013-10-13 20:57:00,
2013-10-13 17:02:00,55.6,45.1,30.38,SE,135,3.0,0.0,68,0.00,,,0.00,meteohub,2013-10-13 21:02:00,
2013-10-13 17:07:00,55.4,45.0,30.39,South,180,4.0,0.0,68,0.00,,,0.00,meteohub,2013-10-13 21:07:00,
2013-10-13 17:12:00,55.2,45.1,30.38,SE,135,4.0,0.0,69,0.00,,,0.00,meteohub,2013-10-13 21:12:00,
2013-10-13 17:17:00,54.9,44.4,30.38,South,180,4.0,0.0,68,0.00,,,0.00,meteohub,2013-10-13 21:17:00,
2013-10-13 17:22:00,54.7,45.1,30.38,SE,135,4.0,0.0,70,0.00,,,0.00,meteohub,2013-10-13 21:22:00,
2013-10-13 17:27:00,54.5,45.7,30.39,South,180,4.0,0.0,72,0.00,,,0.00,meteohub,2013-10-13 21:27:00,
2013-10-13 17:32:00,54.1,46.0,30.38,South,180,7.0,0.0,74,0.00,,,0.00,meteohub,2013-10-13 21:32:00,
2013-10-13 17:37:00,54.0,46.6,30.38,SW,225,0.0,0.0,76,0.00,,,0.00,meteohub,2013-10-13 21:37:00,
2013-10-13 17:42:00,54.0,46.9,30.38,South,180,2.0,0.0,77,0.00,,,0.00,meteohub,2013-10-13 21:42:00,
2013-10-13 17:47:00,53.6,46.6,30.38,South,180,4.0,0.0,77,0.00,,,0.00,meteohub,2013-10-13 21:47:00,
2013-10-13 17:52:00,53.6,46.9,30.38,South,180,2.0,0.0,78,0.00,,,0.00,meteohub,2013-10-13 21:52:00,
2013-10-13 17:57:00,53.4,47.1,30.38,SE,135,0.0,0.0,79,0.00,,,0.00,meteohub,2013-10-13 21:57:00,
2013-10-13 18:02:00,53.2,47.3,30.39,West,270,3.0,0.0,80,0.00,,,0.00,meteohub,2013-10-13 22:02:00,
2013-10-13 18:07:00,53.1,47.1,30.39,South,180,4.0,0.0,80,0.00,,,0.00,meteohub,2013-10-13 22:07:00,
2013-10-13 18:12:00,52.9,47.3,30.38,South,180,3.0,0.0,81,0.00,,,0.00,meteohub,2013-10-13 22:12:00,
2013-10-13 18:17:00,52.9,47.3,30.38,SE,135,0.0,0.0,81,0.00,,,0.00,meteohub,2013-10-13 22:17:00,
2013-10-13 18:22:00,52.7,47.3,30.38,SSW,203,2.0,0.0,82,0.00,,,0.00,meteohub,2013-10-13 22:22:00,
2013-10-13 18:27:00,52.5,47.5,30.39,SE,135,3.0,0.0,83,0.00,,,0.00,meteohub,2013-10-13 22:27:00,
2013-10-13 18:32:00,52.3,47.3,30.39,South,180,3.0,0.0,83,0.00,,,0.00,meteohub,2013-10-13 22:32:00,
2013-10-13 18:37:00,52.2,47.5,30.39,South,180,4.0,0.0,84,0.00,,,0.00,meteohub,2013-10-13 22:37:00,
2013-10-13 18:42:00,52.2,47.5,30.39,South,180,3.0,0.0,84,0.00,,,0.00,meteohub,2013-10-13 22:42:00,
2013-10-13 18:47:00,51.8,47.1,30.39,South,180,5.0,0.0,84,0.00,,,0.00,meteohub,2013-10-13 22:47:00,
2013-10-13 18:52:00,51.6,46.9,30.38,SW,225,1.0,0.0,84,0.00,,,0.00,meteohub,2013-10-13 22:52:00,
2013-10-13 18:57:00,51.3,46.9,30.38,South,180,3.0,0.0,85,0.00,,,0.00,meteohub,2013-10-13 22:57:00,
2013-10-13 19:02:00,51.1,47.1,30.39,South,180,2.0,0.0,86,0.00,,,0.00,meteohub,2013-10-13 23:02:00,
2013-10-13 19:07:00,50.5,46.8,30.39,South,180,1.0,0.0,87,0.00,,,0.00,meteohub,2013-10-13 23:07:00,
2013-10-13 19:12:00,50.0,46.6,30.39,South,180,0.0,0.0,88,0.00,,,0.00,meteohub,2013-10-13 23:12:00,
2013-10-13 19:17:00,49.5,46.6,30.39,South,180,3.0,0.0,90,0.00,,,0.00,meteohub,2013-10-13 23:17:00,
2013-10-13 19:22:00,49.1,46.9,30.39,South,180,3.0,0.0,92,0.00,,,0.00,meteohub,2013-10-13 23:22:00,
2013-10-13 19:27:00,49.1,46.9,30.39,South,180,3.0,0.0,92,0.00,,,0.00,meteohub,2013-10-13 23:27:00,
2013-10-13 19:32:00,48.9,46.8,30.39,South,180,2.0,0.0,92,0.00,,,0.00,meteohub,2013-10-13 23:32:00,
2013-10-13 19:37:00,48.6,46.4,30.39,East,90,0.0,0.0,92,0.00,,,0.00,meteohub,2013-10-13 23:37:00,
2013-10-13 19:42:00,48.0,45.9,30.39,East,90,0.0,0.0,92,0.00,,,0.00,meteohub,2013-10-13 23:42:00,
2013-10-13 19:47:00,47.5,45.5,30.39,East,90,0.0,0.0,93,0.00,,,0.00,meteohub,2013-10-13 23:47:00,
2013-10-13 19:52:00,46.9,45.3,30.39,SE,135,0.0,0.0,94,0.00,,,0.00,meteohub,2013-10-13 23:52:00,
2013-10-13 19:57:00,46.8,45.3,30.39,SE,135,0.0,0.0,95,0.00,,,0.00,meteohub,2013-10-13 23:57:00,
2013-10-13 20:02:00,46.4,45.7,30.39,SE,135,0.0,0.0,97,0.00,,,0.00,meteohub,2013-10-14 00:02:00,
2013-10-13 20:07:00,46.2,45.5,30.39,SE,135,0.0,0.0,97,0.00,,,0.00,meteohub,2013-10-14 00:07:00,
2013-10-13 20:12:00,45.9,45.3,30.39,SE,135,0.0,0.0,98,0.00,,,0.00,meteohub,2013-10-14 00:12:00,
2013-10-13 20:17:00,45.7,45.1,30.39,SE,135,0.0,0.0,98,0.00,,,0.00,meteohub,2013-10-14 00:17:00,
2013-10-13 20:22:00,45.5,45.0,30.40,East,90,0.0,0.0,98,0.00,,,0.00,meteohub,2013-10-14 00:22:00,
2013-10-13 20:27:00,45.1,44.6,30.39,East,90,0.0,0.0,98,0.00,,,0.00,meteohub,2013-10-14 00:27:00,
2013-10-13 20:32:00,45.0,44.8,30.40,SE,135,0.0,0.0,99,0.00,,,0.00,meteohub,2013-10-14 00:32:00,
2013-10-13 20:37:00,44.8,44.6,30.39,SE,135,0.0,0.0,99,0.00,,,0.00,meteohub,2013-10-14 00:37:00,
2013-10-13 20:42:00,44.6,44.4,30.39,SE,135,0.0,0.0,99,0.00,,,0.00,meteohub,2013-10-14 00:42:00,
2013-10-13 20:47:00,44.4,44.2,30.39,South,180,0.0,0.0,99,0.00,,,0.00,meteohub,2013-10-14 00:47:00,
2013-10-13 20:52:00,44.4,44.2,30.39,South,180,0.0,0.0,99,0.00,,,0.00,meteohub,2013-10-14 00:52:00,
2013-10-13 20:57:00,44.2,44.1,30.39,South,180,0.0,0.0,99,0.00,,,0.00,meteohub,2013-10-14 00:57:00,
2013-10-13 21:02:00,44.1,43.9,30.40,SE,135,0.0,0.0,99,0.00,,,0.00,meteohub,2013-10-14 01:02:00,
2013-10-13 21:07:00,43.9,43.7,30.39,East,90,0.0,0.0,99,0.00,,,0.00,meteohub,2013-10-14 01:07:00,
2013-10-13 21:12:00,43.5,43.3,30.40,East,90,0.0,0.0,99,0.00,,,0.00,meteohub,2013-10-14 01:12:00,
2013-10-13 21:17:00,43.2,43.0,30.39,East,90,0.0,0.0,99,0.00,,,0.00,meteohub,2013-10-14 01:17:00,
2013-10-13 21:22:00,43.0,42.8,30.39,East,90,0.0,0.0,99,0.00,,,0.00,meteohub,2013-10-14 01:22:00,
2013-10-13 21:27:00,42.8,42.6,30.39,NE,45,0.0,0.0,99,0.00,,,0.00,meteohub,2013-10-14 01:27:00,
2013-10-13 21:32:00,42.4,42.3,30.39,NE,45,0.0,0.0,99,0.00,,,0.00,meteohub,2013-10-14 01:32:00,
2013-10-13 21:37:00,42.3,42.1,30.40,NE,45,0.0,0.0,99,0.00,,,0.00,meteohub,2013-10-14 01:37:00,
2013-10-13 21:42:00,42.1,41.9,30.40,NE,45,0.0,0.0,99,0.00,,,0.00,meteohub,2013-10-14 01:42:00,
2013-10-13 21:47:00,41.9,41.7,30.39,NE,45,0.0,0.0,99,0.00,,,0.00,meteohub,2013-10-14 01:47:00,
2013-10-13 21:52:00,41.7,41.5,30.39,NE,45,0.0,0.0,99,0.00,,,0.00,meteohub,2013-10-14 01:52:00,
2013-10-13 21:57:00,41.5,41.4,30.39,NE,45,0.0,0.0,99,0.00,,,0.00,meteohub,2013-10-14 01:57:00,
2013-10-13 22:02:00,41.4,41.2,30.39,NE,45,0.0,0.0,99,0.00,,,0.00,meteohub,2013-10-14 02:02:00,
2013-10-13 22:07:00,41.4,41.2,30.39,NE,45,0.0,0.0,99,0.00,,,0.00,meteohub,2013-10-14 02:07:00,
2013-10-13 22:12:00,41.4,41.2,30.39,NE,45,0.0,0.0,99,0.00,,,0.00,meteohub,2013-10-14 02:12:00,
2013-10-13 22:17:00,41.2,41.0,30.39,NE,45,0.0,0.0,99,0.00,,,0.00,meteohub,2013-10-14 02:17:00,
2013-10-13 22:22:00,41.0,40.8,30.39,NE,45,0.0,0.0,99,0.00,,,0.00,meteohub,2013-10-14 02:22:00,
2013-10-13 22:27:00,40.8,40.6,30.39,NE,45,0.0,0.0,99,0.00,,,0.00,meteohub,2013-10-14 02:27:00,
2013-10-13 22:32:00,40.6,40.5,30.40,NE,45,0.0,0.0,99,0.00,,,0.00,meteohub,2013-10-14 02:32:00,
2013-10-13 22:37:00,40.5,40.3,30.39,NE,45,0.0,0.0,99,0.00,,,0.00,meteohub,2013-10-14 02:37:00,
2013-10-13 22:42:00,40.5,40.3,30.39,NE,45,0.0,0.0,99,0.00,,,0.00,meteohub,2013-10-14 02:42:00,
2013-10-13 22:47:00,40.5,40.3,30.39,NE,45,0.0,0.0,99,0.00,,,0.00,meteohub,2013-10-14 02:47:00,
2013-10-13 22:52:00,40.5,40.3,30.39,NE,45,0.0,0.0,99,0.00,,,0.00,meteohub,2013-10-14 02:52:00,
2013-10-13 22:57:00,40.5,40.3,30.39,NE,45,0.0,0.0,99,0.00,,,0.00,meteohub,2013-10-14 02:57:00,
2013-10-13 23:02:00,40.3,40.1,30.39,South,180,0.0,0.0,99,0.00,,,0.00,meteohub,2013-10-14 03:02:00,
2013-10-13 23:07:00,40.3,40.1,30.38,South,180,0.0,0.0,99,0.00,,,0.00,meteohub,2013-10-14 03:07:00,
2013-10-13 23:12:00,40.1,39.9,30.38,SE,135,0.0,0.0,99,0.00,,,0.00,meteohub,2013-10-14 03:12:00,
2013-10-13 23:17:00,39.9,39.7,30.38,SE,135,0.0,0.0,99,0.00,,,0.00,meteohub,2013-10-14 03:17:00,
2013-10-13 23:22:00,39.7,39.6,30.38,SE,135,0.0,0.0,99,0.00,,,0.00,meteohub,2013-10-14 03:22:00,
2013-10-13 23:27:00,39.6,39.4,30.38,SE,135,0.0,0.0,99,0.00,,,0.00,meteohub,2013-10-14 03:27:00,
2013-10-13 23:32:00,39.6,39.4,30.38,SE,135,0.0,0.0,99,0.00,,,0.00,meteohub,2013-10-14 03:32:00,
2013-10-13 23:37:00,39.4,39.2,30.37,SE,135,0.0,0.0,99,0.00,,,0.00,meteohub,2013-10-14 03:37:00,
2013-10-13 23:42:00,39.2,39.0,30.38,SE,135,0.0,0.0,99,0.00,,,0.00,meteohub,2013-10-14 03:42:00,
2013-10-13 23:47:00,39.2,39.0,30.37,SE,135,0.0,0.0,99,0.00,,,0.00,meteohub,2013-10-14 03:47:00,
2013-10-13 23:52:00,39.0,38.8,30.38,SE,135,0.0,0.0,99,0.00,,,0.00,meteohub,2013-10-14 03:52:00,
2013-10-13 23:57:00,38.7,38.5,30.38,SE,135,0.0,0.0,99,0.00,,,0.00,meteohub,2013-10-14 03:57:00,